Skip Page Navigation
NASA JPL Caltech
NASA Logo - Jet Propulsion Laboratory + View the NASA Portal
+ Near-Earth Object (NEO) Program
Search JPL
JPL Home Earth Solar System Stars & Galaxies Technology
JPL Solar System Dynamics
BODIES ORBITS EPHEMERIDES TOOLS PHYSICAL DATA DISCOVERY FAQ SITE MAP
JPL Small-Body Database Browser
Search: [ help ]  
(2010 XC15)
Classification: Aten [NEO, PHA]          SPK-ID: 3553169
Ephemeris | Orbit Diagram | Orbital Elements | Physical Parameters | Close-Approach Data ]

[ hide orbit diagram ]
Orbit Diagram
Note: Make sure you have Java enabled on your browser to see the applet. This applet is provided as a 3D orbit visualization tool. The applet was implemented using 2-body methods, and hence should not be used for determining accurate long-term trajectories (over several years or decades) or planetary encounter circumstances. For accurate long-term ephemerides, please instead use our Horizons system.
Orbit Viewer

Additional Notes: the orbits shown in the applet are color coded. The planets are white lines, and the asteroid/comet is a blue line. The bright white line indicates the portion of the orbit that is above the ecliptic plane, and the darker portion is below the ecliptic plane. Likewise for the asteroid/comet orbit, the light blue indicates the portion above the ecliptic plane, and the dark blue the portion below the ecliptic plane.

Orbit Viewer applet originally written and kindly provided by Osamu Ajiki (AstroArts), and further modified by Ron Baalke (JPL).


Orbital Elements at Epoch 2456400.5 (2013-Apr-18.0) TDB
Reference: JPL 17 (heliocentric ecliptic J2000)
 Element Value Uncertainty (1-sigma)   Units 
e .4167663040010473 5.3512e-07  
a .7349762381917754 1.0939e-07 AU
q .4286629078719957 4.3279e-07 AU
i 8.381571999379144 6.3012e-05 deg
node 94.51436859065431 7.4679e-05 deg
peri 157.5841729197116 6.4468e-05 deg
M 92.36324556533249 0.00033284 deg
tp 2456341.452018101409
(2013-Feb-17.95201810)
0.00020112 JED
period 230.1486197608403
0.63
5.1383e-05
1.407e-07
d
yr
n 1.564206643403272 3.4922e-07 deg/d
Q 1.041289568511555 1.5498e-07 AU
  Orbit Determination Parameters
   # obs. used (total)      142  
   data-arc span      721 days (1.97 yr)  
   first obs. used      2010-12-05  
   last obs. used      2012-11-25  
   planetary ephem.      DE405  
   SB-pert. ephem.      SB405-CPV-2  
   condition code      2  
   fit RMS      .42579  
   data source      ORB  
   producer      Otto Matic  
   solution date      2012-Nov-25 09:50:02  

Additional Information
 Earth MOID = .00202133 AU 
 T_jup = 7.756 
[ show covariance matrix ]

Ephemeris | Orbit Diagram | Orbital Elements | Physical Parameters | Close-Approach Data ]

Physical Parameter Table
Parameter Symbol Value Units Sigma Reference Notes
absolute magnitude H 21.415 mag .39978 17 autocmod 2.5b

[ show close-approach data ]
Ephemeris | Orbit Diagram | Orbital Elements | Physical Parameters | Close-Approach Data ]
ABOUT SSD CREDITS/AWARDS PRIVACY/COPYRIGHT GLOSSARY LINKS
FirstGov 2013-May-22 23:53 UT
(server date/time)  
NASA Home Page
Site Manager:   Donald K. Yeomans
Webmaster  Alan B. Chamberlin